NSS-806

Last updated on Wed Oct 31 2018 00:08:05 GMT+0000 (Coordinated Universal Time)

1 25239U 98014A 18303.76603539 -.00000088 00000-0 00000+0 0 9993 2 25239 0.1970 117.6749 0003994 111.6173 276.9546 0.99079671 75717
UTC large
Height (km)
Speed (km/s)
/
Latitude / Longitude
Inclination (degrees)
Orbital Period (minutes)
Azimuth
Elevation
Range (km)
Doppler Factor

Next 0 passes for location: London (51.5072 / 0.1276)

Sorry there are no passes over London.